Regional Weather Roundup
Issued by NWS

Home | Current Version | Previous Version | Graphics & Text | Print | Product List | Glossary On
Versions: 1 2 3 4 5 6 7 8 9 10 11 12 13 14 15 16 17 18 19 20 21 22 23 24 25 26 27 28 29 30 31 32 33 34 35 36 37 38 39 40 41 42 43 44 45 46 47 48 49 50
000
ASUS43 KIND 200809
RWRIN

WEATHER ROUNDUP FOR INDIANA
NATIONAL WEATHER SERVICE INDIANAPOLIS IN
400 AM EDT WED AUG 20 2014

NOTE: "FAIR" INDICATES FEW OR NO CLOUDS BELOW 12,000 FEET WITH NO
SIGNIFICANT WEATHER AND/OR OBSTRUCTIONS TO VISIBILITY.

* - STATION DOES NOT REPORT WEATHER SUCH AS PRECIPITATION OR FOG.

+ - STATION NOT QUALITY CONTROLLED BY THE NATIONAL WEATHER SERVICE.
    USE DATA WITH CAUTION...ESPECIALLY DEWPOINT AND RELATIVE
    HUMIDITY OBSERVATIONS.

INZ001>003-010>013-019-020-200900-
NORTHWEST INDIANA

CITY           SKY/WX    TMP DP  RH WIND       PRES   REMARKS
GARY /AIRPORT/ CLEAR     70  66  89 CALM      29.81R
KNOX *+        CLEAR     67  64  91 W6        29.79R
LA PORTE +     CLEAR     65  65 100 W5        29.81R
MICHIGAN CITY+ CLEAR     64  64 100 SW3       29.80R
MONTICELLO +   CLEAR     65  64  98 CALM      29.81R
RENSSELAER +   CLEAR     66  66 100 W5        29.82S
VALPARAISO     CLEAR     65  64  97 W6        29.81R

$$

LMZ046-743>745-200900-
SOUTHERN LAKE MICHIGAN

STATION/POSITION TIME  TEMP WIND        PRES
                       AIR  DIR/SP/G
                 (UTC) (F)  (DEG/KT/KT) (MB)
BURNS HARBOR     0800   73  230/  7/  9   N/A
MICHIGAN CITY    0800   72  220/ 12/ 14   N/A

$$

INZ004-005-014>016-021>024-200900-
NORTH CENTRAL INDIANA

CITY           SKY/WX    TMP DP  RH WIND       PRES   REMARKS
GOSHEN         CLEAR     67  64  90 S3        29.80R
LOGANSPORT +   CLEAR     66  63  88 W7        29.83R
PERU/GRISSOM   CLEAR     66  66 100 SW5       29.82R
ROCHESTER +    CLEAR     68  68 100 SW5       29.82R
SOUTH BEND     NOT AVBL
WARSAW +       CLEAR     64  64 100 SW3       29.81R

$$

INZ006>009-017-018-025>027-200900-
NORTHEAST INDIANA

CITY           SKY/WX    TMP DP  RH WIND       PRES   REMARKS
ANGOLA *+      PTCLDY    66  57  72 CALM      29.80R
AUBURN +       PTCLDY    68  63  83 SW5       29.81S
FORT WAYNE     MOCLDY    67  65  93 SW6       29.82R
HUNTINGTON +   MOCLDY    66  64  94 SW5       29.81R

$$

INZ028-029-035-036-043>045-051>053-200900-
WEST CENTRAL INDIANA

CITY           SKY/WX    TMP DP  RH WIND       PRES   REMARKS
GREENCASTLE +  CLEAR     63  61  94 CALM      29.86S FOG
LAFAYETTE      CLEAR     63  63 100 CALM      29.82R
TERRE HAUTE    PTCLDY    66  64  93 CALM      29.85S FOG

$$

INZ030>032-037>040-046>048-054>057-064-065-200900-
CENTRAL INDIANA

CITY           SKY/WX    TMP DP  RH WIND       PRES   REMARKS
CP ATTERBURY + PTCLDY    63  63 100 W3        29.85R
INDIANAPOLIS   CLEAR     65  63  93 SW5       29.84S
-EAGLE CREEK   CLEAR     65  62  90 CALM      29.84R
KOKOMO *+      CLEAR     66  61  82 SW8       29.83R
MARION +       PTCLDY    65  64  95 SW5       29.84R
MT COMFORT *+  PTCLDY    64 N/A N/A S3        29.85R
SHELBYVILLE    MOCLDY    66  32  28 S3        29.84R
ZIONSVILLE +   CLEAR     65  61  88 SW3       29.86R

$$

INZ033-034-041-042-049-050-058-059-200900-
EAST CENTRAL INDIANA

CITY           SKY/WX    TMP DP  RH WIND       PRES   REMARKS
MUNCIE         CLOUDY    68  63  84 SW7       29.84R

$$

INZ060-061-067>069-081>083-085>088-200900-
SOUTHWEST INDIANA

CITY           SKY/WX    TMP DP  RH WIND       PRES   REMARKS
EVANSVILLE     CLEAR     72  68  87 CALM      29.86S
WASHINGTON +   CLEAR     73  73  98 W6        29.85S

$$

INZ062-063-066-070>080-084-089>092-200900-
SOUTH CENTRAL AND SOUTHEAST INDIANA

CITY           SKY/WX    TMP DP  RH WIND       PRES   REMARKS
BEDFORD +      CLEAR     68  63  83 CALM      29.86
BLOOMINGTON    PTCLDY    68  66  93 CALM      29.86S
NORTH VERNON + CLOUDY    66  66 100 CALM      29.87S

$$




USA.gov is the U.S. government's official web portal to all federal, state and local government web resources and services.